Hourly Data Report for October 03, 2014

All times are specified in Local Standard Time (LST). Add 1 hour to adjust for Daylight Saving Time where and when it is observed.

WINNIPEG A CS
MANITOBA

49°55'00.000" N
97°14'58.000" W
238.70 m
502S001
71849
XWG

Download Data

Hourly Data (October 2014)
Hourly Data Report for October 3, 2014
Temp Definition
°C
Dew Point Temp Definition
°C
Rel Hum Definition
%
Wind Dir Definition
10's deg

Wind Spd Definition
km/h
Visibility Definition
km
Stn Press Definition
kPa
Hmdx Definition


Wind Chill Definition


Weather Definition


TIME
00:00 6.2 3.8 85 32 34   98.01     LegendNANA
01:00 5.5 2.8 82 32 39   98.09     LegendNANA
02:00 4.8 2.0 82 32 45   98.14     LegendNANA
03:00 4.4 2.5 88 32 41   98.17     LegendNANA
04:00 3.8 2.4 91 32 43   98.21     LegendNANA
05:00 3.4 2.1 92 32 40   98.22     LegendNANA
06:00 3.1 1.7 91 31 41   98.23     LegendNANA
07:00 3.1 1.5 89 32 43   98.23     LegendNANA
08:00 3.3 1.0 85 32 42   98.27     LegendNANA
09:00 3.5 0.5 81 32 42   98.29     LegendNANA
10:00 3.4 0.7 82 32 45   98.32     LegendNANA
11:00 3.4 0.7 83 32 46   98.34     LegendNANA
12:00 4.0 0.9 80 32 41   98.31     LegendNANA
13:00 5.3 0.9 73 32 44   98.31     LegendNANA
14:00 5.9 1.4 73 32 45   98.32     LegendNANA
15:00 6.1 0.9 69 32 47   98.37     LegendNANA
16:00 6.7 0.4 65 32 43   98.38     LegendNANA
17:00 6.2 1.0 69 32 42   98.41     LegendNANA
18:00 5.7 1.4 74 32 36   98.46     LegendNANA
19:00 5.1 1.5 78 32 35   98.48     LegendNANA
20:00 4.7 2.1 83 32 28   98.49     LegendNANA
21:00 4.8 1.2 78 33 35   98.49     LegendNANA
22:00 4.5 0.5 76 33 34   98.49     LegendNANA
23:00 4.2 -0.7 71 33 33   98.49     LegendNANA

Notes on Data Quality.

Legend

  • E = Estimated
  • M = Missing
  • NA = Not Available
  • ‡ = Partner data that is not subject to review by the National Climate Archives
Date modified: